Location: Niles Junction
(37.5763°N, 121.9714°W)
Time: 04:32:28
(UTC+00:00)

COSMOS 2406 - Pass Details

Date: 29 October 2020
Orbit: 843 x 864 km, 71.0° (Epoch: 23 November)

Event Time Altitude Azimuth Distance (km) Brightness Sun altitude
Exits shadow 12:41:47 24° 330° (NNW) 1,668 4.4 -22.1°
Drops below altitude 10° 12:44:58 10° 0° (N) 2,470 5.6 -21.4°
Sets 12:47:47 0° 12° (NNE) 3,411 6.5 -20.9°
